Tracking 22836 objects as of 18-Apr-2021
HD Live streaming from Space Station
objects crossing your sky now

INSAT 3A

Track INSAT 3A now!
INSAT 3A is classified as:


NORAD ID: 27714
Int'l Code: 2003-013A
Perigee: 35,866.2 km
Apogee: 35,987.5 km
Inclination: 4.3 °
Period: 1,442.9 minutes
Semi major axis: 42297 km
RCS: 22.0529 m2 (large)
Launch date: April 9, 2003
Source: India (IND)
Launch site: FRENCH GUIANA (FRGUI)

12 C-band, 6 extended C-band, 6 Ku-band for voice, video and data transmission to West Asia, East Asia, India; augment present INSAT capacity for communication and meteorological services.
aabbcc
Your satellite tracking list
Your tracking list is empty




NASA's NSSDC Master Catalog

Two Line Element Set (TLE):
1 27714U 03013A   21107.88587424 -.00000007  00000-0  00000-0 0  9993
2 27714   4.2706  79.0972 0014339 287.8839  51.2420  0.99798894 65896
Source of the keplerian elements: AFSPC